F/V Fleur Des Vagues — FPEJ — position and weather

sailwx.info

Track history (hours):
 
Tides and Currents Weather Stations Pressure Air Temp Water Temp Dewpoint Dewpoint Depression Visibility Wind Speed Wind Dir Waves Ship Positions

F/V Fleur Des Vagues

Last reported at 2014-Jul-26 09:18 UTC. Time now 2014-Jul-26 11:13 UTC.
Position N 45°44' W 001°32'.

Length 16 m.

Type: Fishing. MMSI: 227893000.

Date/timePositionNaut miles runAvg speedWind from/ knotsBaromVisibWave heightAir tempDewpointWater temp
2014-Jul-26 09:18N 45°44' W 001°32'7 9.0
2014-Jul-26 08:33N 45°38' W 001°29'2 0.5
2014-Jul-26 04:17N 45°36' W 001°28'2 2.1
2014-Jul-26 03:33N 45°34' W 001°28'1 1.0
2014-Jul-26 02:33N 45°35' W 001°27'0 0.3
2014-Jul-26 01:32N 45°35' W 001°28'2 0.6
2014-Jul-25 23:07N 45°37' W 001°28'0 0.0
2014-Jul-25 20:27N 45°37' W 001°28'0 0.0
2014-Jul-25 16:11N 45°37' W 001°28'0 0.0
2014-Jul-25 15:27N 45°37' W 001°28'0 0.0
2014-Jul-25 14:30N 45°37' W 001°28'0 0.0
2014-Jul-25 13:23N 45°37' W 001°28'2 0.7
2014-Jul-25 10:24N 45°35' W 001°27'1 0.3
2014-Jul-25 07:32N 45°36' W 001°28'0 0.2
2014-Jul-25 05:32N 45°35' W 001°28'1 1.3
2014-Jul-25 04:30N 45°37' W 001°27'2 1.9
2014-Jul-25 03:32N 45°35' W 001°27'1 1.2
2014-Jul-25 02:33N 45°36' W 001°27'0 0.3
2014-Jul-25 01:33N 45°36' W 001°27'2 1.7
2014-Jul-25 00:27N 45°34' W 001°27'0 0.1
2014-Jul-24 23:12N 45°34' W 001°27'0 0.1
2014-Jul-24 22:30N 45°34' W 001°27'0 0.0
2014-Jul-24 20:29N 45°34' W 001°27'0 0.0
2014-Jul-24 19:29N 45°34' W 001°27'0 0.0
2014-Jul-24 18:31N 45°34' W 001°27'0 0.0
2014-Jul-24 17:33N 45°34' W 001°27'0 0.0
2014-Jul-24 16:21N 45°34' W 001°27'0 0.0
2014-Jul-24 14:29N 45°34' W 001°27'0 0.0
2014-Jul-24 13:24N 45°34' W 001°27'2 1.7
2014-Jul-24 12:23N 45°36' W 001°27'1 0.7
2014-Jul-24 11:29N 45°36' W 001°28'1 0.3
2014-Jul-24 08:29N 45°35' W 001°28'2 0.9
2014-Jul-24 06:32N 45°37' W 001°27'2 1.9
2014-Jul-24 05:31N 45°35' W 001°27'9 1.8
2014-Jul-24 00:32N 45°32' W 001°15'8 6.9
2014-Jul-23 23:24N 45°35' W 001°05'16 0.9
2014-Jul-23 05:05N 45°39' W 001°27'2 2.2
2014-Jul-23 04:07N 45°37' W 001°27'2 2.5
2014-Jul-23 03:21N 45°39' W 001°26'2 2.0
2014-Jul-23 02:31N 45°37' W 001°26'4 1.7
2014-Jul-23 00:15N 45°41' W 001°26'0 0.4
2014-Jul-22 23:30N 45°41' W 001°26'0 0.0
2014-Jul-22 22:32N 45°41' W 001°26'0 0.0
2014-Jul-22 21:33N 45°41' W 001°26'0 0.0
2014-Jul-22 20:33N 45°41' W 001°26'0 0.0
2014-Jul-22 19:33N 45°41' W 001°26'0 0.0
2014-Jul-22 18:16N 45°41' W 001°26'0 0.0
2014-Jul-22 17:26N 45°41' W 001°26'0 0.0
2014-Jul-22 16:31N 45°41' W 001°26'0 0.0
2014-Jul-22 15:28N 45°41' W 001°26'0 0.0
2014-Jul-22 13:17N 45°41' W 001°26'  
2014-Jul-18 09:33N 46°18' W 001°58'9 8.9
2014-Jul-18 08:33N 46°25' W 001°50'5 5.3
2014-Jul-18 07:33N 46°30' W 001°47'0 0.0
2014-Jul-18 06:33N 46°30' W 001°47'0 0.2
2014-Jul-18 05:33N 46°30' W 001°47'  
Track history (hours):
 
Tides and Currents Weather Stations Pressure Air Temp Water Temp Dewpoint Dewpoint Depression Visibility Wind Speed Wind Dir Waves Ship Positions

F/V Fleur Des Vagues

Last reported at 2014-Jul-26 09:18 UTC. Time now 2014-Jul-26 11:13 UTC.
Position N 45°44' W 001°32'.

Length 16 m.

Type: Fishing. MMSI: 227893000.

Date/timePositionNaut miles runAvg speedWind from/ knotsBaromVisibWave heightAir tempDewpointWater temp
2014-Jul-26 09:18N 45°44' W 001°32'7 9.0
2014-Jul-26 08:33N 45°38' W 001°29'2 0.5
2014-Jul-26 04:17N 45°36' W 001°28'2 2.1
2014-Jul-26 03:33N 45°34' W 001°28'1 1.0
2014-Jul-26 02:33N 45°35' W 001°27'0 0.3
2014-Jul-26 01:32N 45°35' W 001°28'2 0.6
2014-Jul-25 23:07N 45°37' W 001°28'0 0.0
2014-Jul-25 20:27N 45°37' W 001°28'0 0.0
2014-Jul-25 16:11N 45°37' W 001°28'0 0.0
2014-Jul-25 15:27N 45°37' W 001°28'0 0.0
2014-Jul-25 14:30N 45°37' W 001°28'0 0.0
2014-Jul-25 13:23N 45°37' W 001°28'2 0.7
2014-Jul-25 10:24N 45°35' W 001°27'1 0.3
2014-Jul-25 07:32N 45°36' W 001°28'0 0.2
2014-Jul-25 05:32N 45°35' W 001°28'1 1.3
2014-Jul-25 04:30N 45°37' W 001°27'2 1.9
2014-Jul-25 03:32N 45°35' W 001°27'1 1.2
2014-Jul-25 02:33N 45°36' W 001°27'0 0.3
2014-Jul-25 01:33N 45°36' W 001°27'2 1.7
2014-Jul-25 00:27N 45°34' W 001°27'0 0.1
2014-Jul-24 23:12N 45°34' W 001°27'0 0.1
2014-Jul-24 22:30N 45°34' W 001°27'0 0.0
2014-Jul-24 20:29N 45°34' W 001°27'0 0.0
2014-Jul-24 19:29N 45°34' W 001°27'0 0.0
2014-Jul-24 18:31N 45°34' W 001°27'0 0.0
2014-Jul-24 17:33N 45°34' W 001°27'0 0.0
2014-Jul-24 16:21N 45°34' W 001°27'0 0.0
2014-Jul-24 14:29N 45°34' W 001°27'0 0.0
2014-Jul-24 13:24N 45°34' W 001°27'2 1.7
2014-Jul-24 12:23N 45°36' W 001°27'1 0.7
2014-Jul-24 11:29N 45°36' W 001°28'1 0.3
2014-Jul-24 08:29N 45°35' W 001°28'2 0.9
2014-Jul-24 06:32N 45°37' W 001°27'2 1.9
2014-Jul-24 05:31N 45°35' W 001°27'9 1.8
2014-Jul-24 00:32N 45°32' W 001°15'8 6.9
2014-Jul-23 23:24N 45°35' W 001°05'16 0.9
2014-Jul-23 05:05N 45°39' W 001°27'2 2.2
2014-Jul-23 04:07N 45°37' W 001°27'2 2.5
2014-Jul-23 03:21N 45°39' W 001°26'2 2.0
2014-Jul-23 02:31N 45°37' W 001°26'4 1.7
2014-Jul-23 00:15N 45°41' W 001°26'0 0.4
2014-Jul-22 23:30N 45°41' W 001°26'0 0.0
2014-Jul-22 22:32N 45°41' W 001°26'0 0.0
2014-Jul-22 21:33N 45°41' W 001°26'0 0.0
2014-Jul-22 20:33N 45°41' W 001°26'0 0.0
2014-Jul-22 19:33N 45°41' W 001°26'0 0.0
2014-Jul-22 18:16N 45°41' W 001°26'0 0.0
2014-Jul-22 17:26N 45°41' W 001°26'0 0.0
2014-Jul-22 16:31N 45°41' W 001°26'0 0.0
2014-Jul-22 15:28N 45°41' W 001°26'0 0.0
2014-Jul-22 13:17N 45°41' W 001°26'  
2014-Jul-18 09:33N 46°18' W 001°58'9 8.9
2014-Jul-18 08:33N 46°25' W 001°50'5 5.3
2014-Jul-18 07:33N 46°30' W 001°47'0 0.0
2014-Jul-18 06:33N 46°30' W 001°47'0 0.2
2014-Jul-18 05:33N 46°30' W 001°47'  

Dump ship's entire track history